Tucson, AZ

3:48 PM MST on December 10, 2016 (GMT -0700)
Tucson International

Weather History for KTUS - May, 2014

Change the Weather History Date:

Saturday, May 10, 2014

  Actual Average Record
Temperature  
Mean Temperature 77 °F 74 °F  
Max Temperature 93 °F 90 °F 106 °F (1934)
Min Temperature 61 °F 59 °F 39 °F (1930)
Degree Days  
Heating Degree Days 0 0  
Month to date heating degree days 0 3  
Since 1 July heating degree days 899 1509  
Cooling Degree Days 12 9  
Month to date cooling degree days 85 82  
Year to date cooling degree days 297 236  
Growing Degree Days 27 (Base 50)    
Moisture  
Dew Point 27 °F    
Average Humidity 18    
Maximum Humidity 27    
Minimum Humidity 8    
Precipitation  
Precipitation 0.00 in 0.01 in 0.37 in (1904)
Month to date precipitation 0.00 0.07  
Year to date precipitation 0.61 2.91  
Sea Level Pressure  
Sea Level Pressure 29.72 in    
Wind  
Wind Speed 10 mph (SSW)    
Max Wind Speed 23 mph    
Max Gust Speed 30 mph    
Visibility 10 miles    
Events      
T = Trace of Precipitation, MM = Missing Value Source: NWS Daily Summary

Daily Weather History Graph

Daily Weather History Graph

Search for Another Location

Airport or City:

Trip Planner

Search our weather history database for the weather conditions in past years. The results will help you decide how hot, cold, wet, or windy it might be!

Date:

Astronomy

May. 10, 2014 Rise Set
Actual Time 5:29 AM MST 7:11 PM MST
Civil Twilight 5:03 AM MST 7:37 PM MST
Nautical Twilight 4:31 AM MST 8:09 PM MST
Astronomical Twilight 3:57 AM MST 8:43 PM MST
Moon 3:24 PM MST 2:49 AM MST
Length of Visible Light 14h 34m
Length of Day
13h 41m
Waxing Gibbous, 83% of the Moon is Illuminated
May 10
Waxing Gibbous
May 14
Full
May 21
Last Quarter
May 28
New
Jun 5
First Quarter

Hourly Weather History & Observations

Time (MST) Temp. Dew Point Humidity Pressure Visibility Wind Dir Wind Speed Gust Speed Precip Events Conditions
12:53 AM 66.0 °F 21.9 °F 19% 29.83 in 10.0 mi South 9.2 mph - N/A   Clear
1:53 AM 64.0 °F 24.1 °F 22% 29.82 in 10.0 mi South 5.8 mph - N/A   Clear
2:53 AM 63.0 °F 25.0 °F 24% 29.81 in 10.0 mi SSE 3.5 mph - N/A   Clear
3:53 AM 60.8 °F 26.6 °F 27% 29.92 in 10.0 mi SE 4.6 mph - N/A   Clear
4:53 AM 61.0 °F 26.1 °F 26% 29.81 in 10.0 mi SSE 8.1 mph - N/A   Clear
5:53 AM 62.1 °F 26.1 °F 25% 29.81 in 10.0 mi SE 9.2 mph - N/A   Clear
6:53 AM 66.0 °F 26.1 °F 22% 29.82 in 10.0 mi SE 10.4 mph - N/A   Clear
7:53 AM 73.0 °F 26.1 °F 17% 29.81 in 10.0 mi SE 10.4 mph 20.7 mph N/A   Clear
8:53 AM 77.0 °F 26.1 °F 15% 29.81 in 10.0 mi SE 8.1 mph - N/A   Clear
9:53 AM 80.1 °F 24.1 °F 13% 29.78 in 10.0 mi ESE 3.5 mph - N/A   Clear
10:53 AM 82.9 °F 25.0 °F 12% 29.76 in 10.0 mi Calm Calm - N/A   Clear
11:53 AM 84.9 °F 27.0 °F 12% 29.73 in 10.0 mi Variable 3.5 mph - N/A   Clear
12:53 PM 90.0 °F 25.0 °F 10% 29.70 in 10.0 mi West 11.5 mph - N/A   Clear
1:53 PM 91.0 °F 26.1 °F 10% 29.68 in 10.0 mi WSW 15.0 mph 23.0 mph N/A   Clear
2:53 PM 91.9 °F 25.0 °F 9% 29.65 in 10.0 mi WSW 17.3 mph 24.2 mph N/A   Clear
3:53 PM 91.0 °F 23.0 °F 8% 29.64 in 10.0 mi WSW 15.0 mph 24.2 mph N/A   Clear
4:53 PM 91.0 °F 25.0 °F 9% 29.62 in 10.0 mi WSW 19.6 mph 28.8 mph N/A   Clear
5:53 PM 89.1 °F 26.1 °F 10% 29.61 in 10.0 mi WSW 16.1 mph 24.2 mph N/A   Clear
6:53 PM 86.0 °F 27.0 °F 12% 29.61 in 10.0 mi WSW 16.1 mph 24.2 mph N/A   Clear
7:53 PM 82.9 °F 32.0 °F 16% 29.62 in 10.0 mi WSW 11.5 mph - N/A   Clear
8:53 PM 81.0 °F 33.1 °F 18% 29.63 in 10.0 mi WSW 12.7 mph - N/A   Clear
9:53 PM 78.1 °F 34.0 °F 20% 29.64 in 10.0 mi West 5.8 mph - N/A   Clear
10:53 PM 77.0 °F 35.1 °F 22% 29.63 in 10.0 mi SW 12.7 mph - N/A   Clear
11:53 PM 75.9 °F 35.1 °F 23% 29.62 in 10.0 mi SSW 10.4 mph 20.7 mph N/A   Clear